Location: Asheville, NC
(35.6000°N, 82.5500°W)
Time: 06:47:59
(UTC-05:00)

NUDT-PHONESAT - Visible Passes

Search period start: 18 January 2018 00:00
Search period end: 28 January 2018 00:00
Orbit: 495 x 512 km, 97.4° (Epoch: 18 January)

Date Brightness Start Highest point End Pass type
(mag) Time Alt. Az. Time Alt. Az. Time Alt. Az.
18 Jan ? 06:08:05 10° NE 06:10:59 22° E 06:13:51 10° SSE visible
18 Jan ? 18:16:22 10° S 18:20:04 68° W 18:23:48 10° NNW visible
19 Jan ? 05:50:43 10° ENE 05:52:22 13° E 05:54:02 10° ESE visible
20 Jan ? 07:04:16 10° N 07:07:51 57° WNW 07:11:25 10° SSW visible
20 Jan ? 19:15:42 10° WSW 19:17:06 12° W 19:18:31 10° WNW visible
21 Jan ? 06:45:44 10° NNE 06:49:24 77° ESE 06:53:01 10° S visible
21 Jan ? 18:55:41 10° SW 18:58:30 20° W 19:01:20 10° NW visible
22 Jan ? 06:27:24 10° NNE 06:30:53 40° E 06:34:19 10° S visible
22 Jan ? 18:36:31 10° SSW 18:39:56 35° W 18:43:23 10° NNW visible
23 Jan ? 06:09:22 10° NE 06:12:18 23° E 06:15:13 10° SSE visible
23 Jan ? 18:17:43 10° S 18:21:25 65° W 18:25:07 10° NNW visible
24 Jan ? 05:51:55 10° ENE 05:53:42 13° E 05:55:28 10° ESE visible
25 Jan ? 07:05:34 10° N 07:09:08 54° WNW 07:12:40 10° SSW visible
25 Jan ? 19:17:13 10° WSW 19:18:25 11° W 19:19:36 10° WNW visible
26 Jan ? 06:47:00 10° NNE 06:50:39 80° ESE 06:54:17 10° S visible
26 Jan ? 18:57:02 10° SW 18:59:47 19° W 19:02:32 10° NW visible
27 Jan ? 06:28:39 10° NNE 06:32:08 42° E 06:35:35 10° S visible
27 Jan ? 18:37:48 10° SSW 18:41:11 33° W 18:44:36 10° NNW visible
